Harlan, KY

6:44 AM EST on November 13, 2019 (GMT -0500)
Harlan

Weather History for KI35 - September, 2019

Change the Weather History Date:

Sunday, September 15, 2019

  Actual Average (WUND) Record (WUND)
Temperature  
Mean Temperature 73 °F -  
Max Temperature 91 °F - - (-1)
Min Temperature 55 °F - - (-1)
Cooling Degree Days 8    
Growing Degree Days 23 (Base 50)    
Moisture  
Dew Point 53 °F    
Average Humidity 64    
Maximum Humidity 99    
Minimum Humidity 16    
Precipitation  
Precipitation 0.00 in - - ()
Sea Level Pressure  
Sea Level Pressure 30.20 in    
Wind  
Wind Speed 1 mph ()    
Max Wind Speed 7 mph    
Max Gust Speed -    
Visibility 10.0 miles    
Events      
Averages and records for this station are not official NWS values.
T = Trace of Precipitation, MM = Missing Value Source: Averaged Metar Reports

Daily Weather History Graph

Daily Weather History Graph

Search for Another Location

Airport or City:

Astronomy

Sep. 15, 2019 Rise Set
Actual Time 7:15 AM EDT 7:41 PM EDT
Civil Twilight 6:49 AM EDT 8:07 PM EDT
Nautical Twilight 6:18 AM EDT 8:37 PM EDT
Astronomical Twilight 5:47 AM EDT 9:08 PM EDT
Moon 8:49 PM EDT (9/15) 8:24 AM EDT (9/15)
Length of Visible Light 13h 17m
Length of Day
12h 25m
Full, 98% of the Moon is Illuminated
Sep 15
Full
Sep 21
Last Quarter
Sep 28
New
Oct 5
First Quarter
Oct 13
Full

Hourly Weather History & Observations

Time (EDT) Temp. Dew Point Humidity Pressure Visibility Wind Dir Wind Speed Gust Speed Precip Events Conditions
12:15 AM 63.5 °F 61.7 °F 94% 30.25 in 10.0 mi Calm Calm - N/A   Clear
12:35 AM 62.2 °F 61.2 °F 96% 30.25 in 10.0 mi Calm Calm - N/A   Clear
12:55 AM 61.7 °F 61.0 °F 97% 30.25 in 10.0 mi Calm Calm - N/A   Clear
1:15 AM 61.2 °F 60.1 °F 96% 30.25 in 10.0 mi Calm Calm - N/A   Clear
1:35 AM 60.8 °F 59.5 °F 96% 30.25 in 10.0 mi Calm Calm - N/A   Clear
2:15 AM 59.9 °F 59.2 °F 97% 30.26 in 10.0 mi Calm Calm - N/A   Clear
2:35 AM 59.2 °F 58.3 °F 97% 30.25 in 10.0 mi Calm Calm - N/A   Clear
3:15 AM 58.6 °F 57.9 °F 97% 30.25 in 10.0 mi ENE 3.5 mph - N/A   Clear
3:35 AM 58.3 °F 57.4 °F 97% 30.25 in 10.0 mi Calm Calm - N/A   Clear
3:55 AM 58.1 °F 57.4 °F 97% 30.24 in 10.0 mi ENE 3.5 mph - N/A   Clear
4:15 AM 58.1 °F 57.2 °F 97% 30.24 in 10.0 mi Calm Calm - N/A   Clear
4:35 AM 57.4 °F 56.8 °F 98% 30.24 in 10.0 mi Calm Calm - N/A   Clear
4:55 AM 57.2 °F 57.0 °F 99% 30.24 in 7.0 mi Calm Calm - N/A   Scattered Clouds
5:35 AM 56.7 °F 56.3 °F 99% 30.24 in 10.0 mi Calm Calm - N/A   Scattered Clouds
5:55 AM 56.5 °F 56.1 °F 99% 30.25 in 10.0 mi Calm Calm - N/A   Clear
6:15 AM 56.5 °F 55.9 °F 98% 30.24 in 10.0 mi Calm Calm - N/A   Scattered Clouds
6:35 AM 55.8 °F 55.2 °F 98% 30.25 in 10.0 mi Calm Calm - N/A   Scattered Clouds
6:55 AM 55.8 °F 55.4 °F 99% 30.25 in 10.0 mi Calm Calm - N/A   Scattered Clouds
7:15 AM 55.4 °F 55.2 °F 99% 30.25 in 10.0 mi Calm Calm - N/A   Scattered Clouds
7:55 AM 55.8 °F 55.6 °F 99% 30.25 in 10.0 mi Calm Calm - N/A   Mostly Cloudy
8:15 AM 56.3 °F 56.1 °F 99% 30.25 in 10.0 mi Calm Calm - N/A   Mostly Cloudy
8:35 AM 57.4 °F 56.7 °F 97% 30.25 in 10.0 mi Calm Calm - N/A   Scattered Clouds
8:55 AM 58.8 °F 57.4 °F 95% 30.26 in 10.0 mi Calm Calm - N/A   Scattered Clouds
9:15 AM 60.6 °F 57.9 °F 91% 30.26 in 10.0 mi Calm Calm - N/A   Clear
9:35 AM 63.7 °F 58.5 °F 83% 30.27 in 10.0 mi Calm Calm - N/A   Clear
9:55 AM 64.9 °F 57.0 °F 75% 30.27 in 10.0 mi Calm Calm - N/A   Clear
10:15 AM 67.3 °F 58.3 °F 73% 30.27 in 10.0 mi Calm Calm - N/A   Clear
10:35 AM 69.4 °F 56.7 °F 64% 30.27 in 10.0 mi Calm Calm - N/A   Clear
10:55 AM 71.2 °F 57.6 °F 62% 30.26 in 10.0 mi Calm Calm - N/A   Clear
11:15 AM 74.1 °F 58.3 °F 58% 30.25 in 10.0 mi Calm Calm - N/A   Clear
11:35 AM 75.0 °F 56.7 °F 53% 30.25 in 10.0 mi Calm Calm - N/A   Clear
11:55 AM 78.1 °F 55.8 °F 46% 30.24 in 10.0 mi Calm Calm - N/A   Clear
12:15 PM 79.9 °F 55.4 °F 43% 30.24 in 10.0 mi NNW 3.5 mph - N/A   Clear
12:35 PM 81.9 °F 51.8 °F 35% 30.23 in 10.0 mi Calm Calm - N/A   Clear
12:55 PM 81.9 °F 48.6 °F 31% 30.22 in 10.0 mi Calm Calm - N/A   Clear
1:15 PM 83.5 °F 47.8 °F 29% 30.22 in 10.0 mi SW 4.6 mph - N/A   Clear
1:35 PM 84.9 °F 47.5 °F 27% 30.21 in 10.0 mi SSW 4.6 mph - N/A   Clear
1:55 PM 85.1 °F 45.7 °F 25% 30.20 in 10.0 mi Calm Calm - N/A   Clear
2:15 PM 87.1 °F 45.5 °F 23% 30.20 in 10.0 mi WSW 3.5 mph - N/A   Clear
2:55 PM 87.8 °F 46.6 °F 24% 30.17 in 10.0 mi SW 4.6 mph - N/A   Clear
3:15 PM 88.9 °F 46.9 °F 23% 30.16 in 10.0 mi South 3.5 mph - N/A   Clear
3:35 PM 89.4 °F 47.1 °F 23% 30.16 in 10.0 mi North 3.5 mph - N/A   Clear
3:55 PM 91.4 °F 39.0 °F 16% 30.15 in 10.0 mi West 6.9 mph - N/A   Clear
4:15 PM 91.2 °F 40.1 °F 17% 30.14 in 10.0 mi NW 4.6 mph - N/A   Clear
4:35 PM 90.7 °F 41.5 °F 18% 30.14 in 10.0 mi North 4.6 mph - N/A   Clear
4:55 PM 90.5 °F 41.9 °F 18% 30.13 in 10.0 mi NE 3.5 mph - N/A   Clear
5:15 PM 90.1 °F 41.4 °F 18% 30.12 in 10.0 mi North 5.8 mph - N/A   Clear
5:35 PM 90.3 °F 41.2 °F 18% 30.12 in 10.0 mi NNW 3.5 mph - N/A   Clear
6:15 PM 89.4 °F 41.9 °F 19% 30.12 in 10.0 mi North 3.5 mph - N/A   Clear
6:35 PM 88.7 °F 43.3 °F 21% 30.12 in 10.0 mi North 3.5 mph - N/A   Clear
6:55 PM 86.2 °F 45.1 °F 24% 30.13 in 10.0 mi North 3.5 mph - N/A   Clear
7:15 PM 82.8 °F 47.1 °F 29% 30.13 in 10.0 mi Calm Calm - N/A   Clear
7:35 PM 79.5 °F 46.4 °F 31% 30.13 in 10.0 mi Calm Calm - N/A   Clear
7:55 PM 76.3 °F 47.7 °F 36% 30.13 in 10.0 mi Calm Calm - N/A   Clear
8:15 PM 73.2 °F 50.4 °F 44% 30.13 in 10.0 mi Calm Calm - N/A   Clear
8:35 PM 70.9 °F 52.2 °F 51% 30.14 in 10.0 mi Calm Calm - N/A   Clear
8:55 PM 69.8 °F 53.2 °F 56% 30.15 in 10.0 mi Calm Calm - N/A   Clear
9:15 PM 67.8 °F 54.5 °F 62% 30.15 in 10.0 mi Calm Calm - N/A   Clear
9:35 PM 66.2 °F 54.7 °F 66% 30.16 in 10.0 mi Calm Calm - N/A   Clear
9:55 PM 65.7 °F 54.9 °F 68% 30.16 in 10.0 mi Calm Calm - N/A   Clear
10:15 PM 64.4 °F 55.4 °F 73% 30.17 in 10.0 mi Calm Calm - N/A   Clear
10:35 PM 63.0 °F 55.4 °F 76% 30.17 in 10.0 mi Calm Calm - N/A   Clear
10:55 PM 62.1 °F 55.6 °F 79% 30.16 in 10.0 mi Calm Calm - N/A   Clear
11:15 PM 61.5 °F 55.8 °F 81% 30.17 in 10.0 mi Calm Calm - N/A   Clear
11:35 PM 61.0 °F 55.8 °F 83% 30.17 in 10.0 mi Calm Calm - N/A   Clear
11:55 PM 60.4 °F 55.6 °F 84% 30.17 in 10.0 mi Calm Calm - N/A   Clear